Time,TemperatureF,DewpointF,PressureIn,WindDirection,WindDirectionDegrees,WindSpeedMPH,WindSpeedGustMPH,Humidity,HourlyPrecipIn,Conditions,Clouds,dailyrainin,SoftwareType,DateUTC
2013-02-21 00:00:00,21.0,19.3,29.17,WNW,292,9.0,36.0,93,0.00,,,0.00,Weather View 32 v70,2013-02-21 05:00:00,
2013-02-21 00:05:00,21.0,20.0,29.17,NW,315,18.0,36.0,96,0.00,,,0.00,Weather View 32 v70,2013-02-21 05:05:00,
2013-02-21 00:10:00,20.0,19.3,29.17,West,270,13.0,36.0,97,0.00,,,0.00,Weather View 32 v70,2013-02-21 05:10:00,
2013-02-21 00:20:00,20.0,18.3,29.17,WNW,292,12.0,36.0,93,0.00,,,0.00,Weather View 32 v70,2013-02-21 05:20:00,
2013-02-21 00:25:00,20.0,18.6,29.17,NW,315,13.0,36.0,94,0.00,,,0.00,Weather View 32 v70,2013-02-21 05:25:00,
2013-02-21 00:30:00,20.0,20.0,29.17,WNW,292,9.0,36.0,100,0.00,,,0.00,Weather View 32 v70,2013-02-21 05:30:00,
2013-02-21 00:35:00,21.0,20.0,29.17,West,270,9.0,36.0,96,0.00,,,0.00,Weather View 32 v70,2013-02-21 05:35:00,
2013-02-21 00:40:00,20.0,19.0,29.17,NW,315,22.0,31.0,96,0.00,,,0.00,Weather View 32 v70,2013-02-21 05:40:00,
2013-02-21 00:50:00,20.0,19.0,29.17,West,270,17.0,31.0,96,0.00,,,0.00,Weather View 32 v70,2013-02-21 05:50:00,
2013-02-21 01:00:00,20.0,19.3,29.17,WNW,292,7.0,31.0,97,0.00,,,0.00,Weather View 32 v70,2013-02-21 06:00:00,
2013-02-21 01:05:00,20.0,19.3,29.19,NW,315,15.0,29.0,97,0.00,,,0.00,Weather View 32 v70,2013-02-21 06:05:00,
2013-02-21 01:10:00,20.0,20.0,29.18,NW,315,14.0,29.0,100,0.00,,,0.00,Weather View 32 v70,2013-02-21 06:10:00,
2013-02-21 01:20:00,20.0,18.6,29.18,WNW,292,8.0,26.0,94,0.00,,,0.00,Weather View 32 v70,2013-02-21 06:20:00,
2013-02-21 01:25:00,20.0,18.8,29.18,WNW,292,16.0,28.0,95,0.00,,,0.00,Weather View 32 v70,2013-02-21 06:25:00,
2013-02-21 01:35:00,20.0,20.0,29.18,WNW,292,7.0,31.0,100,0.00,,,0.00,Weather View 32 v70,2013-02-21 06:35:00,
2013-02-21 01:40:00,20.0,19.8,29.18,NW,315,7.0,31.0,99,0.00,,,0.00,Weather View 32 v70,2013-02-21 06:40:00,
2013-02-21 01:50:00,20.0,18.3,29.18,NW,315,8.0,31.0,93,0.00,,,0.00,Weather View 32 v70,2013-02-21 06:50:00,
2013-02-21 01:55:00,20.0,19.5,29.18,NW,315,13.0,31.0,98,0.00,,,0.00,Weather View 32 v70,2013-02-21 06:55:00,
2013-02-21 02:05:00,20.0,18.6,29.17,WNW,292,13.0,31.0,94,0.00,,,0.00,Weather View 32 v70,2013-02-21 07:05:00,
2013-02-21 02:10:00,20.0,19.3,29.18,WNW,292,7.0,31.0,97,0.00,,,0.00,Weather View 32 v70,2013-02-21 07:10:00,
2013-02-21 02:20:00,20.0,20.0,29.18,West,270,1.0,31.0,100,0.00,,,0.00,Weather View 32 v70,2013-02-21 07:20:00,
2013-02-21 02:25:00,20.0,18.6,29.18,WNW,292,7.0,31.0,94,0.00,,,0.00,Weather View 32 v70,2013-02-21 07:25:00,
2013-02-21 02:35:00,20.0,18.8,29.18,West,270,4.0,26.0,95,0.00,,,0.00,Weather View 32 v70,2013-02-21 07:35:00,
2013-02-21 02:40:00,20.0,19.3,29.18,WNW,292,5.0,26.0,97,0.00,,,0.00,Weather View 32 v70,2013-02-21 07:40:00,
2013-02-21 02:50:00,20.0,20.0,29.18,WNW,292,4.0,26.0,100,0.00,,,0.00,Weather View 32 v70,2013-02-21 07:50:00,
2013-02-21 02:55:00,20.0,18.6,29.17,West,270,8.0,26.0,94,0.00,,,0.00,Weather View 32 v70,2013-02-21 07:55:00,
2013-02-21 03:05:00,20.0,19.3,29.17,WNW,292,9.0,20.0,97,0.00,,,0.00,Weather View 32 v70,2013-02-21 08:05:00,
2013-02-21 03:10:00,20.0,18.6,29.17,WNW,292,9.0,20.0,94,0.00,,,0.00,Weather View 32 v70,2013-02-21 08:10:00,
2013-02-21 03:20:00,20.0,19.3,29.17,NW,315,10.0,23.0,97,0.00,,,0.00,Weather View 32 v70,2013-02-21 08:20:00,
2013-02-21 03:25:00,20.0,19.0,29.17,WNW,292,10.0,23.0,96,0.00,,,0.00,Weather View 32 v70,2013-02-21 08:25:00,
2013-02-21 03:30:00,20.0,19.5,29.17,WNW,292,6.0,23.0,98,0.00,,,0.00,Weather View 32 v70,2013-02-21 08:30:00,
2013-02-21 03:40:00,20.0,19.3,29.17,WNW,292,17.0,24.0,97,0.00,,,0.00,Weather View 32 v70,2013-02-21 08:40:00,
2013-02-21 03:50:00,20.0,19.5,29.17,NW,315,23.0,27.0,98,0.00,,,0.00,Weather View 32 v70,2013-02-21 08:50:00,
2013-02-21 03:55:00,20.0,19.3,29.17,West,270,20.0,27.0,97,0.00,,,0.00,Weather View 32 v70,2013-02-21 08:55:00,
2013-02-21 04:00:00,20.0,18.8,29.17,NW,315,14.0,33.0,95,0.00,,,0.00,Weather View 32 v70,2013-02-21 09:00:00,
2013-02-21 04:10:00,20.0,19.3,29.17,NW,315,12.0,33.0,97,0.00,,,0.00,Weather View 32 v70,2013-02-21 09:10:00,
2013-02-21 04:15:00,20.0,19.0,29.18,NW,315,17.0,33.0,96,0.00,,,0.00,Weather View 32 v70,2013-02-21 09:15:00,
2013-02-21 04:25:00,20.0,19.3,29.18,NW,315,21.0,33.0,97,0.00,,,0.00,Weather View 32 v70,2013-02-21 09:25:00,
2013-02-21 04:30:00,20.0,19.3,29.18,WNW,292,16.0,33.0,97,0.00,,,0.00,Weather View 32 v70,2013-02-21 09:30:00,
2013-02-21 04:40:00,20.0,20.0,29.18,NW,315,17.0,33.0,100,0.00,,,0.00,Weather View 32 v70,2013-02-21 09:40:00,
2013-02-21 04:45:00,20.0,19.5,29.18,West,270,6.0,33.0,98,0.00,,,0.00,Weather View 32 v70,2013-02-21 09:45:00,
2013-02-21 04:55:00,20.0,20.0,29.19,West,270,10.0,33.0,100,0.00,,,0.00,Weather View 32 v70,2013-02-21 09:55:00,
2013-02-21 05:00:00,20.0,20.0,29.19,WNW,292,9.0,33.0,100,0.00,,,0.00,Weather View 32 v70,2013-02-21 10:00:00,
2013-02-21 05:05:00,20.0,20.0,29.19,WNW,292,7.0,33.0,100,0.00,,,0.00,Weather View 32 v70,2013-02-21 10:05:00,
2013-02-21 05:15:00,20.0,20.0,29.20,WNW,292,12.0,33.0,100,0.00,,,0.00,Weather View 32 v70,2013-02-21 10:15:00,
2013-02-21 05:20:00,19.0,19.0,29.20,NW,315,11.0,33.0,100,0.00,,,0.00,Weather View 32 v70,2013-02-21 10:20:00,
2013-02-21 05:30:00,19.0,19.0,29.20,West,270,9.0,33.0,100,0.00,,,0.00,Weather View 32 v70,2013-02-21 10:30:00,
2013-02-21 05:35:00,19.0,19.0,29.20,NW,315,15.0,33.0,100,0.00,,,0.00,Weather View 32 v70,2013-02-21 10:35:00,
2013-02-21 05:43:00,19.0,19.0,29.20,WNW,292,11.0,33.0,100,0.00,,,0.00,Weather View 32 v70,2013-02-21 10:43:00,
2013-02-21 05:50:00,19.0,19.0,29.20,WNW,292,15.0,33.0,100,0.00,,,0.00,Weather View 32 v70,2013-02-21 10:50:00,
2013-02-21 05:55:00,19.0,19.0,29.20,WNW,292,10.0,33.0,100,0.00,,,0.00,Weather View 32 v70,2013-02-21 10:55:00,
2013-02-21 06:00:00,19.0,19.0,29.21,WNW,292,13.0,33.0,100,0.00,,,0.00,Weather View 32 v70,2013-02-21 11:00:00,
2013-02-21 06:10:00,19.0,18.5,29.21,NW,315,16.0,35.0,98,0.00,,,0.00,Weather View 32 v70,2013-02-21 11:10:00,
2013-02-21 06:15:00,19.0,19.0,29.21,NW,315,10.0,35.0,100,0.00,,,0.00,Weather View 32 v70,2013-02-21 11:15:00,
2013-02-21 06:25:00,20.0,19.3,29.20,NW,315,10.0,35.0,97,0.00,,,0.00,Weather View 32 v70,2013-02-21 11:25:00,
2013-02-21 06:30:00,19.0,18.5,29.20,NW,315,13.0,35.0,98,0.00,,,0.00,Weather View 32 v70,2013-02-21 11:30:00,
2013-02-21 06:40:00,19.0,18.3,29.21,West,270,19.0,35.0,97,0.00,,,0.00,Weather View 32 v70,2013-02-21 11:40:00,
2013-02-21 06:45:00,19.0,17.8,29.21,WNW,292,12.0,35.0,95,0.00,,,0.00,Weather View 32 v70,2013-02-21 11:45:00,
2013-02-21 06:55:00,19.0,18.3,29.21,WNW,292,12.0,35.0,97,0.00,,,0.00,Weather View 32 v70,2013-02-21 11:55:00,
2013-02-21 07:00:00,20.0,19.0,29.21,NW,315,7.0,35.0,96,0.00,,,0.00,Weather View 32 v70,2013-02-21 12:00:00,
2013-02-21 07:10:00,19.0,19.0,29.21,NW,315,13.0,28.0,100,0.00,,,0.00,Weather View 32 v70,2013-02-21 12:10:00,
2013-02-21 07:20:00,19.0,18.8,29.22,WSW,247,12.0,28.0,99,0.00,,,0.00,Weather View 32 v70,2013-02-21 12:20:00,
2013-02-21 07:25:00,20.0,19.0,29.21,West,270,15.0,28.0,96,0.00,,,0.00,Weather View 32 v70,2013-02-21 12:25:00,
2013-02-21 07:35:00,20.0,19.0,29.21,NW,315,12.0,28.0,96,0.00,,,0.00,Weather View 32 v70,2013-02-21 12:35:00,
2013-02-21 07:40:00,20.0,19.3,29.21,NW,315,17.0,28.0,97,0.00,,,0.00,Weather View 32 v70,2013-02-21 12:40:00,
2013-02-21 07:50:00,20.0,18.6,29.22,WNW,292,25.0,30.0,94,0.00,,,0.00,Weather View 32 v70,2013-02-21 12:50:00,
2013-02-21 07:55:00,20.0,18.6,29.22,WNW,292,16.0,30.0,94,0.00,,,0.00,Weather View 32 v70,2013-02-21 12:55:00,
2013-02-21 08:05:00,20.0,18.6,29.22,WNW,292,9.0,34.0,94,0.00,,,0.00,Weather View 32 v70,2013-02-21 13:05:00,
2013-02-21 08:10:00,21.0,19.8,29.22,WNW,292,22.0,34.0,95,0.00,,,0.00,Weather View 32 v70,2013-02-21 13:10:00,
2013-02-21 08:20:00,21.0,19.3,29.23,WNW,292,25.0,34.0,93,0.00,,,0.00,Weather View 32 v70,2013-02-21 13:20:00,
2013-02-21 08:30:00,21.0,19.3,29.23,NW,315,10.0,34.0,93,0.00,,,0.00,Weather View 32 v70,2013-02-21 13:30:00,
2013-02-21 08:35:00,21.0,18.8,29.23,NW,315,12.0,34.0,91,0.00,,,0.00,Weather View 32 v70,2013-02-21 13:35:00,
2013-02-21 08:44:00,21.0,19.5,29.23,NW,315,16.0,34.0,94,0.00,,,0.00,Weather View 32 v70,2013-02-21 13:44:00,
2013-02-21 08:50:00,21.0,18.8,29.23,NW,315,9.0,34.0,91,0.00,,,0.00,Weather View 32 v70,2013-02-21 13:50:00,
2013-02-21 09:00:00,22.0,21.3,29.23,NW,315,17.0,34.0,97,0.00,,,0.00,Weather View 32 v70,2013-02-21 14:00:00,
2013-02-21 09:05:00,22.0,20.3,29.23,West,270,5.0,33.0,93,0.00,,,0.00,Weather View 32 v70,2013-02-21 14:05:00,
2013-02-21 09:15:00,22.0,19.8,29.23,West,270,15.0,35.0,91,0.00,,,0.00,Weather View 32 v70,2013-02-21 14:15:00,
2013-02-21 09:20:00,22.0,19.5,29.23,NW,315,11.0,35.0,90,0.00,,,0.00,Weather View 32 v70,2013-02-21 14:20:00,
2013-02-21 09:30:00,22.0,19.3,29.22,NW,315,20.0,35.0,89,0.00,,,0.00,Weather View 32 v70,2013-02-21 14:30:00,
2013-02-21 09:35:00,22.0,20.5,29.23,NW,315,11.0,35.0,94,0.00,,,0.00,Weather View 32 v70,2013-02-21 14:35:00,
2013-02-21 09:45:00,23.0,20.8,29.23,WNW,292,17.0,35.0,91,0.00,,,0.00,Weather View 32 v70,2013-02-21 14:45:00,
2013-02-21 09:55:00,23.0,21.8,29.24,WNW,292,17.0,35.0,95,0.00,,,0.00,Weather View 32 v70,2013-02-21 14:55:00,
2013-02-21 10:00:00,23.0,19.7,29.24,NW,315,32.0,35.0,87,0.00,,,0.00,Weather View 32 v70,2013-02-21 15:00:00,
2013-02-21 10:10:00,23.0,19.7,29.23,WNW,292,15.0,36.0,87,0.00,,,0.00,Weather View 32 v70,2013-02-21 15:10:00,
2013-02-21 10:15:00,23.0,20.2,29.23,NW,315,11.0,36.0,89,0.00,,,0.00,Weather View 32 v70,2013-02-21 15:15:00,
2013-02-21 10:25:00,24.0,21.0,29.25,West,270,13.0,36.0,88,0.00,,,0.00,Weather View 32 v70,2013-02-21 15:25:00,
2013-02-21 10:35:00,23.0,20.8,29.25,NW,315,14.0,36.0,91,0.00,,,0.00,Weather View 32 v70,2013-02-21 15:35:00,
2013-02-21 10:40:00,23.0,20.2,29.25,NW,315,16.0,36.0,89,0.00,,,0.00,Weather View 32 v70,2013-02-21 15:40:00,
2013-02-21 10:46:00,23.0,20.2,29.24,West,270,15.0,36.0,89,0.00,,,0.00,Weather View 32 v70,2013-02-21 15:46:00,
2013-02-21 10:55:00,23.0,22.3,29.24,West,270,10.0,36.0,97,0.00,,,0.00,Weather View 32 v70,2013-02-21 15:55:00,
2013-02-21 11:05:00,23.0,20.8,29.24,WNW,292,19.0,32.0,91,0.00,,,0.00,Weather View 32 v70,2013-02-21 16:05:00,
2013-02-21 11:10:00,23.0,20.2,29.24,NW,315,13.0,32.0,89,0.00,,,0.00,Weather View 32 v70,2013-02-21 16:10:00,
2013-02-21 11:15:00,24.0,20.7,29.23,NW,315,17.0,32.0,87,0.00,,,0.00,Weather View 32 v70,2013-02-21 16:15:00,
2013-02-21 11:25:00,24.0,22.0,29.23,West,270,13.0,32.0,92,0.00,,,0.00,Weather View 32 v70,2013-02-21 16:25:00,
2013-02-21 11:30:00,24.0,21.5,29.23,NW,315,7.0,32.0,90,0.00,,,0.00,Weather View 32 v70,2013-02-21 16:30:00,
2013-02-21 11:40:00,25.0,21.1,29.22,NW,315,19.0,32.0,85,0.00,,,0.00,Weather View 32 v70,2013-02-21 16:40:00,
2013-02-21 11:45:00,25.0,21.7,29.22,NW,315,10.0,32.0,87,0.00,,,0.00,Weather View 32 v70,2013-02-21 16:45:00,
2013-02-21 11:55:00,26.0,21.5,29.22,WNW,292,11.0,32.0,83,0.00,,,0.00,Weather View 32 v70,2013-02-21 16:55:00,
2013-02-21 12:05:00,26.0,21.8,29.22,NW,315,16.0,32.0,84,0.00,,,0.00,Weather View 32 v70,2013-02-21 17:05:00,
2013-02-21 12:10:00,26.0,20.7,29.22,NW,315,17.0,32.0,80,0.00,,,0.00,Weather View 32 v70,2013-02-21 17:10:00,
2013-02-21 12:20:00,27.0,23.4,29.22,WNW,292,10.0,30.0,86,0.00,,,0.00,Weather View 32 v70,2013-02-21 17:20:00,
2013-02-21 12:25:00,28.0,22.9,29.22,West,270,5.0,25.0,81,0.00,,,0.00,Weather View 32 v70,2013-02-21 17:25:00,
2013-02-21 12:35:00,28.0,21.7,29.21,WNW,292,13.0,26.0,77,0.00,,,0.00,Weather View 32 v70,2013-02-21 17:35:00,
2013-02-21 12:45:00,28.0,21.7,29.21,West,270,12.0,28.0,77,0.00,,,0.00,Weather View 32 v70,2013-02-21 17:45:00,
2013-02-21 12:50:00,27.0,21.4,29.22,NW,315,17.0,28.0,79,0.00,,,0.00,Weather View 32 v70,2013-02-21 17:50:00,
2013-02-21 13:00:00,28.0,23.2,29.21,NW,315,13.0,28.0,82,0.00,,,0.00,Weather View 32 v70,2013-02-21 18:00:00,
2013-02-21 13:05:00,28.0,22.9,29.21,NW,315,12.0,30.0,81,0.00,,,0.00,Weather View 32 v70,2013-02-21 18:05:00,
2013-02-21 13:15:00,28.0,21.1,29.21,NW,315,18.0,30.0,75,0.00,,,0.00,Weather View 32 v70,2013-02-21 18:15:00,
2013-02-21 13:25:00,29.0,23.0,29.19,NW,315,20.0,32.0,78,0.00,,,0.00,Weather View 32 v70,2013-02-21 18:25:00,
2013-02-21 13:30:00,28.0,21.1,29.19,WNW,292,22.0,32.0,75,0.00,,,0.00,Weather View 32 v70,2013-02-21 18:30:00,
2013-02-21 13:35:00,29.0,21.4,29.19,WNW,292,10.0,32.0,73,0.00,,,0.00,Weather View 32 v70,2013-02-21 18:35:00,
2013-02-21 13:45:00,29.0,22.4,29.19,NW,315,13.0,32.0,76,0.00,,,0.00,Weather View 32 v70,2013-02-21 18:45:00,
2013-02-21 13:50:00,29.0,21.8,29.19,West,270,17.0,32.0,74,0.00,,,0.00,Weather View 32 v70,2013-02-21 18:50:00,
2013-02-21 14:00:00,29.0,23.0,29.19,NW,315,17.0,32.0,78,0.00,,,0.00,Weather View 32 v70,2013-02-21 19:00:00,
2013-02-21 14:10:00,30.0,23.0,29.19,NW,315,18.0,32.0,75,0.00,,,0.00,Weather View 32 v70,2013-02-21 19:10:00,
2013-02-21 14:15:00,30.0,23.4,29.20,NW,315,6.0,32.0,76,0.00,,,0.00,Weather View 32 v70,2013-02-21 19:15:00,
2013-02-21 14:25:00,29.0,24.2,29.19,WNW,292,13.0,30.0,82,0.00,,,0.00,Weather View 32 v70,2013-02-21 19:25:00,
2013-02-21 14:30:00,30.0,22.7,29.19,NW,315,21.0,29.0,74,0.00,,,0.00,Weather View 32 v70,2013-02-21 19:30:00,
2013-02-21 14:40:00,30.0,21.1,29.19,West,270,15.0,29.0,69,0.00,,,0.00,Weather View 32 v70,2013-02-21 19:40:00,
2013-02-21 14:45:00,31.0,22.7,29.19,NW,315,16.0,29.0,71,0.00,,,0.00,Weather View 32 v70,2013-02-21 19:45:00,
2013-02-21 14:55:00,30.0,21.7,29.19,NW,315,23.0,29.0,71,0.00,,,0.00,Weather View 32 v70,2013-02-21 19:55:00,
2013-02-21 15:05:00,30.0,21.7,29.20,West,270,13.0,29.0,71,0.00,,,0.00,Weather View 32 v70,2013-02-21 20:05:00,
2013-02-21 15:10:00,31.0,22.0,29.20,West,270,12.0,29.0,69,0.00,,,0.00,Weather View 32 v70,2013-02-21 20:10:00,
2013-02-21 15:20:00,31.0,24.0,29.19,NW,315,11.0,29.0,75,0.00,,,0.00,Weather View 32 v70,2013-02-21 20:20:00,
2013-02-21 15:25:00,31.0,21.7,29.19,West,270,19.0,29.0,68,0.00,,,0.00,Weather View 32 v70,2013-02-21 20:25:00,
2013-02-21 15:35:00,30.0,22.1,29.20,NW,315,17.0,29.0,72,0.00,,,0.00,Weather View 32 v70,2013-02-21 20:35:00,
2013-02-21 15:40:00,31.0,22.4,29.20,WNW,292,11.0,29.0,70,0.00,,,0.00,Weather View 32 v70,2013-02-21 20:40:00,
2013-02-21 15:48:00,31.0,22.4,29.20,NW,315,14.0,29.0,70,0.00,,,0.00,Weather View 32 v70,2013-02-21 20:48:00,
2013-02-21 15:55:00,31.0,22.0,29.20,NW,315,10.0,29.0,69,0.00,,,0.00,Weather View 32 v70,2013-02-21 20:55:00,
2013-02-21 16:05:00,31.0,24.0,29.20,NW,315,16.0,29.0,75,0.00,,,0.00,Weather View 32 v70,2013-02-21 21:05:00,
2013-02-21 16:15:00,30.0,21.4,29.21,NW,315,16.0,29.0,70,0.00,,,0.00,Weather View 32 v70,2013-02-21 21:15:00,
2013-02-21 16:25:00,30.0,21.1,29.20,NW,315,16.0,29.0,69,0.00,,,0.00,Weather View 32 v70,2013-02-21 21:25:00,
2013-02-21 16:30:00,30.0,21.1,29.21,NW,315,12.0,29.0,69,0.00,,,0.00,Weather View 32 v70,2013-02-21 21:30:00,
2013-02-21 16:40:00,31.0,21.7,29.20,NW,315,13.0,28.0,68,0.00,,,0.00,Weather View 32 v70,2013-02-21 21:40:00,
2013-02-21 16:55:00,30.0,22.7,29.22,NW,315,16.0,28.0,74,0.00,,,0.00,Weather View 32 v70,2013-02-21 21:55:00,
2013-02-21 17:00:00,29.0,22.1,29.22,NW,315,13.0,28.0,75,0.00,,,0.00,Weather View 32 v70,2013-02-21 22:00:00,
2013-02-21 17:10:00,30.0,22.1,29.22,West,270,9.0,28.0,72,0.00,,,0.00,Weather View 32 v70,2013-02-21 22:10:00,
2013-02-21 17:15:00,30.0,22.4,29.23,NW,315,15.0,28.0,73,0.00,,,0.00,Weather View 32 v70,2013-02-21 22:15:00,
2013-02-21 17:25:00,30.0,22.7,29.23,NW,315,12.0,23.0,74,0.00,,,0.00,Weather View 32 v70,2013-02-21 22:25:00,
2013-02-21 17:30:00,30.0,22.4,29.23,NW,315,10.0,23.0,73,0.00,,,0.00,Weather View 32 v70,2013-02-21 22:30:00,
2013-02-21 17:40:00,29.0,22.4,29.26,WNW,292,7.0,23.0,76,0.00,,,0.00,Weather View 32 v70,2013-02-21 22:40:00,
2013-02-21 17:45:00,29.0,21.8,29.26,WNW,292,14.0,23.0,74,0.00,,,0.00,Weather View 32 v70,2013-02-21 22:45:00,
2013-02-21 17:55:00,28.0,21.4,29.27,WNW,292,13.0,23.0,76,0.00,,,0.00,Weather View 32 v70,2013-02-21 22:55:00,
2013-02-21 18:05:00,28.0,22.0,29.28,NW,315,6.0,23.0,78,0.00,,,0.00,Weather View 32 v70,2013-02-21 23:05:00,
2013-02-21 18:10:00,28.0,22.6,29.28,WNW,292,6.0,23.0,80,0.00,,,0.00,Weather View 32 v70,2013-02-21 23:10:00,
2013-02-21 18:20:00,28.0,22.3,29.29,NW,315,12.0,20.0,79,0.00,,,0.00,Weather View 32 v70,2013-02-21 23:20:00,
2013-02-21 18:25:00,28.0,22.9,29.29,WNW,292,10.0,20.0,81,0.00,,,0.00,Weather View 32 v70,2013-02-21 23:25:00,
2013-02-21 18:35:00,28.0,22.9,29.29,NW,315,16.0,20.0,81,0.00,,,0.00,Weather View 32 v70,2013-02-21 23:35:00,
2013-02-21 18:45:00,28.0,23.2,29.30,NW,315,13.0,20.0,82,0.00,,,0.00,Weather View 32 v70,2013-02-21 23:45:00,
2013-02-21 18:50:00,28.0,21.4,29.30,West,270,13.0,20.0,76,0.00,,,0.00,Weather View 32 v70,2013-02-21 23:50:00,
2013-02-21 19:00:00,28.0,22.3,29.30,NW,315,16.0,22.0,79,0.00,,,0.00,Weather View 32 v70,2013-02-22 00:00:00,
2013-02-21 19:05:00,28.0,22.9,29.30,NW,315,13.0,22.0,81,0.00,,,0.00,Weather View 32 v70,2013-02-22 00:05:00,
2013-02-21 19:15:00,28.0,22.3,29.31,WNW,292,12.0,22.0,79,0.00,,,0.00,Weather View 32 v70,2013-02-22 00:15:00,
2013-02-21 19:25:00,28.0,22.9,29.32,NW,315,16.0,22.0,81,0.00,,,0.00,Weather View 32 v70,2013-02-22 00:25:00,
2013-02-21 19:30:00,27.0,24.2,29.32,NW,315,12.0,22.0,89,0.00,,,0.00,Weather View 32 v70,2013-02-22 00:30:00,
2013-02-21 19:40:00,27.0,22.5,29.31,NW,315,10.0,22.0,83,0.00,,,0.00,Weather View 32 v70,2013-02-22 00:40:00,
2013-02-21 19:45:00,27.0,22.8,29.31,NW,315,17.0,22.0,84,0.00,,,0.00,Weather View 32 v70,2013-02-22 00:45:00,
2013-02-21 19:50:00,27.0,24.7,29.33,NW,315,11.0,22.0,91,0.00,,,0.00,Weather View 32 v70,2013-02-22 00:50:00,
2013-02-21 20:00:00,27.0,21.7,29.32,WNW,292,10.0,22.0,80,0.00,,,0.00,Weather View 32 v70,2013-02-22 01:00:00,
2013-02-21 20:10:00,27.0,23.1,29.32,NW,315,12.0,22.0,85,0.00,,,0.00,Weather View 32 v70,2013-02-22 01:10:00,
2013-02-21 20:20:00,27.0,21.9,29.31,WNW,292,14.0,25.0,81,0.00,,,0.00,Weather View 32 v70,2013-02-22 01:20:00,
2013-02-21 20:25:00,27.0,21.9,29.31,WNW,292,19.0,25.0,81,0.00,,,0.00,Weather View 32 v70,2013-02-22 01:25:00,
2013-02-21 20:35:00,27.0,21.9,29.33,NW,315,19.0,25.0,81,0.00,,,0.00,Weather View 32 v70,2013-02-22 01:35:00,
2013-02-21 20:40:00,28.0,22.9,29.32,NW,315,17.0,25.0,81,0.00,,,0.00,Weather View 32 v70,2013-02-22 01:40:00,
2013-02-21 20:50:00,28.0,22.9,29.32,NW,315,10.0,25.0,81,0.00,,,0.00,Weather View 32 v70,2013-02-22 01:50:00,
2013-02-21 21:00:00,29.0,22.7,29.33,West,270,6.0,25.0,77,0.00,,,0.00,Weather View 32 v70,2013-02-22 02:00:00,
2013-02-21 21:10:00,28.0,22.0,29.34,WNW,292,12.0,25.0,78,0.00,,,0.00,Weather View 32 v70,2013-02-22 02:10:00,
2013-02-21 21:15:00,28.0,23.2,29.34,NW,315,17.0,25.0,82,0.00,,,0.00,Weather View 32 v70,2013-02-22 02:15:00,
2013-02-21 21:25:00,28.0,22.9,29.33,NW,315,14.0,25.0,81,0.00,,,0.00,Weather View 32 v70,2013-02-22 02:25:00,
2013-02-21 21:35:00,28.0,23.5,29.34,NW,315,13.0,25.0,83,0.00,,,0.00,Weather View 32 v70,2013-02-22 02:35:00,
2013-02-21 21:40:00,27.0,22.8,29.34,NW,315,12.0,25.0,84,0.00,,,0.00,Weather View 32 v70,2013-02-22 02:40:00,
2013-02-21 21:50:00,28.0,22.9,29.33,NW,315,17.0,25.0,81,0.00,,,0.00,Weather View 32 v70,2013-02-22 02:50:00,
2013-02-21 22:00:00,28.0,22.9,29.33,NW,315,20.0,25.0,81,0.00,,,0.00,Weather View 32 v70,2013-02-22 03:00:00,
2013-02-21 22:05:00,27.0,21.9,29.33,NW,315,15.0,25.0,81,0.00,,,0.00,Weather View 32 v70,2013-02-22 03:05:00,
2013-02-21 22:15:00,27.0,22.8,29.35,NW,315,13.0,25.0,84,0.00,,,0.00,Weather View 32 v70,2013-02-22 03:15:00,
2013-02-21 22:25:00,27.0,22.8,29.33,WNW,292,16.0,24.0,84,0.00,,,0.00,Weather View 32 v70,2013-02-22 03:25:00,
2013-02-21 22:30:00,27.0,24.5,29.33,WNW,292,14.0,20.0,90,0.00,,,0.00,Weather View 32 v70,2013-02-22 03:30:00,
2013-02-21 22:40:00,27.0,23.9,29.35,NW,315,16.0,20.0,88,0.00,,,0.00,Weather View 32 v70,2013-02-22 03:40:00,
2013-02-21 22:45:00,27.0,23.1,29.35,WNW,292,10.0,20.0,85,0.00,,,0.00,Weather View 32 v70,2013-02-22 03:45:00,
2013-02-21 22:52:00,27.0,22.8,29.36,WNW,292,9.0,20.0,84,0.00,,,0.00,Weather View 32 v70,2013-02-22 03:52:00,
2013-02-21 23:00:00,27.0,24.2,29.35,NW,315,11.0,20.0,89,0.00,,,0.00,Weather View 32 v70,2013-02-22 04:00:00,
2013-02-21 23:05:00,27.0,23.6,29.35,WNW,292,10.0,19.0,87,0.00,,,0.00,Weather View 32 v70,2013-02-22 04:05:00,
2013-02-21 23:15:00,27.0,23.6,29.37,WNW,292,1.0,19.0,87,0.00,,,0.00,Weather View 32 v70,2013-02-22 04:15:00,
2013-02-21 23:20:00,27.0,23.9,29.36,WNW,292,9.0,19.0,88,0.00,,,0.00,Weather View 32 v70,2013-02-22 04:20:00,
2013-02-21 23:30:00,26.0,24.8,29.36,NW,315,9.0,17.0,95,0.00,,,0.00,Weather View 32 v70,2013-02-22 04:30:00,
2013-02-21 23:50:00,26.0,22.9,29.36,WNW,292,6.0,16.0,88,0.00,,,0.00,Weather View 32 v70,2013-02-22 04:50:00,